MET'MAP v2.0
soon released !

Expected late october,
this new version will be
more efficient, smarter,
and hosted on a brand new
server x3 powerfull...
...and still free !


Not compatible ?
Try the mobile version !

LOG IN : | Subscribe | Disclaimer | Who is Orbifly ? |
ICAO code :

TAF - LEVC Valencia Manises - 06 Jul 2020 22:39 UTC
Data Sources :     NOAA   


- Airport Elevation : 240 ft
- IATA code : VLC
- No reported NOTAMs.


LEVC - Valencia Manises

NO METAR
TAF TAF LEVC
Valid from the 06 at 18:00 until the 07 at 18:00 UTC


061700Z 0618/0718 10010KT 9999 FEW030 TX32/0712Z TN23/0706Z
BECMG 0618/0620 VRB03KT
BECMG 0708/0710 06010KT

Source NOAA


MET'MAP, your aeronautical weather chart ! - Copyright ORBIFLY December 2007

Programming & Development : Alexandra Zaïnal
Co-Developer : Marc-Olivier Méhu
Technical & hardware support : Manuel Goepfert
Concept & Financing : Baudouin d'Aumeries